Time,TemperatureF,DewpointF,PressureIn,WindDirection,WindDirectionDegrees,WindSpeedMPH,WindSpeedGustMPH,Humidity,HourlyPrecipIn,Conditions,Clouds,dailyrainin,SoftwareType,DateUTC
2013-02-08 00:00:00,1.5,-4.6,30.67,NNW,344,2.0,2.0,75,0.00,,,0.00,Wunderground v.1.15,2013-02-08 04:00:00,
2013-02-08 00:10:00,1.4,-4.7,30.67,WSW,255,2.0,2.0,75,0.00,,,0.00,Wunderground v.1.15,2013-02-08 04:10:00,
2013-02-08 00:20:00,1.3,-4.8,30.68,WSW,239,2.0,2.0,75,0.00,,,0.00,Wunderground v.1.15,2013-02-08 04:20:00,
2013-02-08 00:30:00,1.2,-4.9,30.68,SW,219,2.0,22.0,75,0.00,,,0.00,Wunderground v.1.15,2013-02-08 04:30:00,
2013-02-08 00:40:00,1.3,-4.5,30.69,West,260,3.0,3.0,76,0.00,,,0.00,Wunderground v.1.15,2013-02-08 04:40:00,
2013-02-08 00:50:00,1.3,-4.5,30.68,SSW,213,2.0,2.0,76,0.00,,,0.00,Wunderground v.1.15,2013-02-08 04:50:00,
2013-02-08 01:00:00,0.5,-5.3,30.68,SW,222,2.0,2.0,76,0.00,,,0.00,Wunderground v.1.15,2013-02-08 05:00:00,
2013-02-08 01:10:00,-0.7,-6.7,30.68,SW,224,2.0,2.0,75,0.00,,,0.00,Wunderground v.1.15,2013-02-08 05:10:00,
2013-02-08 01:20:00,-1.2,-6.9,30.69,SSW,192,2.0,22.0,76,0.00,,,0.00,Wunderground v.1.15,2013-02-08 05:20:00,
2013-02-08 01:30:00,-1.7,-7.4,30.69,SSW,200,3.0,3.0,76,0.00,,,0.00,Wunderground v.1.15,2013-02-08 05:30:00,
2013-02-08 01:40:00,-3.2,-9.2,30.70,SSW,203,3.0,22.0,75,0.00,,,0.00,Wunderground v.1.15,2013-02-08 05:40:00,
2013-02-08 01:50:00,-3.6,-9.3,30.70,SSW,195,2.0,22.0,76,0.00,,,0.00,Wunderground v.1.15,2013-02-08 05:50:00,
2013-02-08 02:00:00,-3.4,-9.1,30.71,SW,218,2.0,22.0,76,0.00,,,0.00,Wunderground v.1.15,2013-02-08 06:00:00,
2013-02-08 02:10:00,-3.6,-9.0,30.71,SW,230,1.0,22.0,77,0.00,,,0.00,Wunderground v.1.15,2013-02-08 06:10:00,
2013-02-08 02:20:00,-3.3,-8.7,30.72,SW,221,3.0,3.0,77,0.00,,,0.00,Wunderground v.1.15,2013-02-08 06:20:00,
2013-02-08 02:30:00,-3.2,-8.6,30.72,SW,219,2.0,2.0,77,0.00,,,0.00,Wunderground v.1.15,2013-02-08 06:30:00,
2013-02-08 02:40:00,-3.3,-8.7,30.72,SW,233,2.0,22.0,77,0.00,,,0.00,Wunderground v.1.15,2013-02-08 06:40:00,
2013-02-08 02:50:00,-3.6,-9.0,30.72,SSW,200,2.0,22.0,77,0.00,,,0.00,Wunderground v.1.15,2013-02-08 06:50:00,
2013-02-08 03:00:00,-3.7,-9.1,30.73,SW,218,3.0,3.0,77,0.00,,,0.00,Wunderground v.1.15,2013-02-08 07:00:00,
2013-02-08 03:10:00,-4.1,-9.2,30.73,South,177,2.0,22.0,78,0.00,,,0.00,Wunderground v.1.15,2013-02-08 07:10:00,
2013-02-08 03:20:00,-4.4,-9.5,30.73,SSW,207,3.0,22.0,78,0.00,,,0.00,Wunderground v.1.15,2013-02-08 07:20:00,
2013-02-08 03:30:00,-4.8,-9.9,30.73,South,184,3.0,3.0,78,0.00,,,0.00,Wunderground v.1.15,2013-02-08 07:30:00,
2013-02-08 03:40:00,-4.7,-9.8,30.73,SSW,205,3.0,22.0,78,0.00,,,0.00,Wunderground v.1.15,2013-02-08 07:40:00,
2013-02-08 03:50:00,-4.9,-10.0,30.73,SSW,204,2.0,22.0,78,0.00,,,0.00,Wunderground v.1.15,2013-02-08 07:50:00,
2013-02-08 04:00:00,-5.1,-9.9,30.73,SSW,211,2.0,22.0,79,0.00,,,0.00,Wunderground v.1.15,2013-02-08 08:00:00,
2013-02-08 04:10:00,-5.1,-9.9,30.73,SSW,207,2.0,22.0,79,0.00,,,0.00,Wunderground v.1.15,2013-02-08 08:10:00,
2013-02-08 04:20:00,-5.2,-10.0,30.73,SSW,208,1.0,1.0,79,0.00,,,0.00,Wunderground v.1.15,2013-02-08 08:20:00,
2013-02-08 04:30:00,-5.2,-10.0,30.73,SSW,203,2.0,2.0,79,0.00,,,0.00,Wunderground v.1.15,2013-02-08 08:30:00,
2013-02-08 04:40:00,-5.2,-9.8,30.74,SSW,206,2.0,22.0,80,0.00,,,0.00,Wunderground v.1.15,2013-02-08 08:40:00,
2013-02-08 04:50:00,-4.9,-9.5,30.75,SW,222,3.0,3.0,80,0.00,,,0.00,Wunderground v.1.15,2013-02-08 08:50:00,
2013-02-08 05:00:00,-4.8,-9.4,30.75,SSW,202,3.0,3.0,80,0.00,,,0.00,Wunderground v.1.15,2013-02-08 09:00:00,
2013-02-08 05:10:00,-4.8,-9.4,30.76,WSW,252,2.0,22.0,80,0.00,,,0.00,Wunderground v.1.15,2013-02-08 09:10:00,
2013-02-08 05:20:00,-4.7,-9.3,30.76,SSW,202,2.0,22.0,80,0.00,,,0.00,Wunderground v.1.15,2013-02-08 09:20:00,
2013-02-08 05:30:00,-4.5,-8.8,30.76,SW,219,2.0,22.0,81,0.00,,,0.00,Wunderground v.1.15,2013-02-08 09:30:00,
2013-02-08 05:40:00,-4.4,-9.0,30.76,SSW,208,2.0,2.0,80,0.00,,,0.00,Wunderground v.1.15,2013-02-08 09:40:00,
2013-02-08 05:50:00,-4.2,-8.8,30.76,WSW,242,2.0,22.0,80,0.00,,,0.00,Wunderground v.1.15,2013-02-08 09:50:00,
2013-02-08 06:00:00,-4.3,-8.9,30.76,SW,219,2.0,22.0,80,0.00,,,0.00,Wunderground v.1.15,2013-02-08 10:00:00,
2013-02-08 06:10:00,-4.4,-9.0,30.76,SSW,198,1.0,1.0,80,0.00,,,0.00,Wunderground v.1.15,2013-02-08 10:10:00,
2013-02-08 06:20:00,-4.5,-8.8,30.77,SW,222,1.0,22.0,81,0.00,,,0.00,Wunderground v.1.15,2013-02-08 10:20:00,
2013-02-08 06:30:00,-4.8,-9.1,30.77,SSE,160,1.0,1.0,81,0.00,,,0.00,Wunderground v.1.15,2013-02-08 10:30:00,
2013-02-08 06:40:00,-5.4,-10.0,30.77,South,183,0.0,22.0,80,0.00,,,0.00,Wunderground v.1.15,2013-02-08 10:40:00,
2013-02-08 06:50:00,-5.6,-9.7,30.78,SW,233,0.0,22.0,82,0.00,,,0.00,Wunderground v.1.15,2013-02-08 10:50:00,
2013-02-08 07:00:00,-5.4,-9.5,30.78,SSW,206,1.0,22.0,82,0.00,,,0.00,Wunderground v.1.15,2013-02-08 11:00:00,
2013-02-08 07:10:00,-5.7,-9.8,30.78,SSW,193,1.0,1.0,82,0.00,,,0.00,Wunderground v.1.15,2013-02-08 11:10:00,
2013-02-08 07:20:00,-6.0,-10.1,30.78,SSW,192,0.0,22.0,82,0.00,,,0.00,Wunderground v.1.15,2013-02-08 11:20:00,
2013-02-08 07:30:00,-6.1,-9.9,30.78,South,183,0.0,22.0,83,0.00,,,0.00,Wunderground v.1.15,2013-02-08 11:30:00,
2013-02-08 07:40:00,-6.0,-9.8,30.78,SSE,153,1.0,1.0,83,0.00,,,0.00,Wunderground v.1.15,2013-02-08 11:40:00,
2013-02-08 07:50:00,-5.7,-9.5,30.78,SSW,192,1.0,22.0,83,0.00,,,0.00,Wunderground v.1.15,2013-02-08 11:50:00,
2013-02-08 08:00:00,-4.2,-8.1,30.78,South,191,0.0,22.0,83,0.00,,,0.00,Wunderground v.1.15,2013-02-08 12:00:00,
2013-02-08 08:10:00,-3.2,-7.3,30.78,South,191,1.0,22.0,82,0.00,,,0.00,Wunderground v.1.15,2013-02-08 12:10:00,
2013-02-08 08:20:00,-2.2,-6.9,30.78,South,191,1.0,22.0,80,0.00,,,0.00,Wunderground v.1.15,2013-02-08 12:20:00,
2013-02-08 08:30:00,-1.9,-7.1,30.79,SSW,198,3.0,22.0,78,0.00,,,0.00,Wunderground v.1.15,2013-02-08 12:30:00,
2013-02-08 08:40:00,-1.1,-6.3,30.79,SSW,197,3.0,22.0,78,0.00,,,0.00,Wunderground v.1.15,2013-02-08 12:40:00,
2013-02-08 08:50:00,0.0,-5.5,30.78,South,190,2.0,2.0,77,0.00,,,0.00,Wunderground v.1.15,2013-02-08 12:50:00,
2013-02-08 09:00:00,0.9,-5.2,30.78,SSW,212,2.0,2.0,75,0.00,,,0.00,Wunderground v.1.15,2013-02-08 13:00:00,
2013-02-08 09:10:00,2.1,-4.0,30.77,SSW,204,1.0,22.0,75,0.00,,,0.00,Wunderground v.1.15,2013-02-08 13:10:00,
2013-02-08 09:20:00,3.0,-3.4,30.77,SW,228,2.0,22.0,74,0.00,,,0.00,Wunderground v.1.15,2013-02-08 13:20:00,
2013-02-08 09:30:00,3.4,-3.3,30.78,WSW,240,3.0,3.0,73,0.00,,,0.00,Wunderground v.1.15,2013-02-08 13:30:00,
2013-02-08 09:40:00,4.1,-2.6,30.78,SW,219,2.0,2.0,73,0.00,,,0.00,Wunderground v.1.15,2013-02-08 13:40:00,
2013-02-08 09:50:00,4.6,-2.7,30.78,SSW,213,2.0,22.0,71,0.00,,,0.00,Wunderground v.1.15,2013-02-08 13:50:00,
2013-02-08 10:00:00,5.0,-2.4,30.78,SW,233,3.0,3.0,71,0.00,,,0.00,Wunderground v.1.15,2013-02-08 14:00:00,
2013-02-08 10:10:00,5.6,-1.8,30.79,SSW,203,3.0,3.0,71,0.00,,,0.00,Wunderground v.1.15,2013-02-08 14:10:00,
2013-02-08 10:20:00,6.7,-1.0,30.78,SSW,210,2.0,2.0,70,0.00,,,0.00,Wunderground v.1.15,2013-02-08 14:20:00,
2013-02-08 10:30:00,7.1,-0.9,30.78,WSW,243,2.0,22.0,69,0.00,,,0.00,Wunderground v.1.15,2013-02-08 14:30:00,
2013-02-08 10:40:00,8.4,0.3,30.77,ESE,117,1.0,1.0,69,0.00,,,0.00,Wunderground v.1.15,2013-02-08 14:40:00,
2013-02-08 10:50:00,9.0,0.6,30.77,SSW,197,1.0,1.0,68,0.00,,,0.00,Wunderground v.1.15,2013-02-08 14:50:00,
2013-02-08 11:00:00,10.6,1.5,30.76,West,276,0.0,22.0,66,0.00,,,0.00,Wunderground v.1.15,2013-02-08 15:00:00,
2013-02-08 11:10:00,10.4,1.6,30.76,NE,37,1.0,22.0,67,0.00,,,0.00,Wunderground v.1.15,2013-02-08 15:10:00,
2013-02-08 11:20:00,11.0,1.2,30.77,WSW,255,1.0,1.0,64,0.00,,,0.00,Wunderground v.1.15,2013-02-08 15:20:00,
2013-02-08 11:30:00,11.0,0.2,30.78,NNW,345,1.0,22.0,61,0.00,,,0.00,Wunderground v.1.15,2013-02-08 15:30:00,
2013-02-08 11:40:00,11.8,0.6,30.78,West,274,1.0,22.0,60,0.00,,,0.00,Wunderground v.1.15,2013-02-08 15:40:00,
2013-02-08 11:50:00,11.7,0.5,30.78,WSW,253,1.0,22.0,60,0.00,,,0.00,Wunderground v.1.15,2013-02-08 15:50:00,
2013-02-08 12:00:00,12.4,0.8,30.78,SSW,210,0.0,22.0,59,0.00,,,0.00,Wunderground v.1.15,2013-02-08 16:00:00,
2013-02-08 12:10:00,13.4,1.4,30.77,SSW,197,0.0,22.0,58,0.00,,,0.00,Wunderground v.1.15,2013-02-08 16:10:00,
2013-02-08 12:20:00,12.6,-0.2,30.77,SW,214,1.0,22.0,56,0.00,,,0.00,Wunderground v.1.15,2013-02-08 16:20:00,
2013-02-08 12:30:00,13.2,0.8,30.77,East,101,1.0,22.0,57,0.00,,,0.00,Wunderground v.1.15,2013-02-08 16:30:00,
2013-02-08 12:40:00,12.8,0.8,30.77,WNW,294,1.0,22.0,58,0.00,,,0.00,Wunderground v.1.15,2013-02-08 16:40:00,
2013-02-08 12:50:00,12.3,0.3,30.77,SW,224,1.0,1.0,58,0.00,,,0.00,Wunderground v.1.15,2013-02-08 16:50:00,
2013-02-08 13:00:00,12.3,-1.2,30.77,SSW,199,2.0,22.0,54,0.00,,,0.00,Wunderground v.1.15,2013-02-08 17:00:00,
2013-02-08 13:10:00,11.5,-2.8,30.76,SW,214,3.0,3.0,52,0.00,,,0.00,Wunderground v.1.15,2013-02-08 17:10:00,
2013-02-08 13:20:00,11.8,-2.1,30.76,SSW,203,2.0,22.0,53,0.00,,,0.00,Wunderground v.1.15,2013-02-08 17:20:00,
2013-02-08 13:30:00,12.5,-2.2,30.75,SSE,166,2.0,22.0,51,0.00,,,0.00,Wunderground v.1.15,2013-02-08 17:30:00,
2013-02-08 13:40:00,13.2,-1.6,30.75,SW,217,1.0,22.0,51,0.00,,,0.00,Wunderground v.1.15,2013-02-08 17:40:00,
2013-02-08 13:50:00,12.6,-2.1,30.75,ESE,122,2.0,2.0,51,0.00,,,0.00,Wunderground v.1.15,2013-02-08 17:50:00,
2013-02-08 14:00:00,12.5,-2.2,30.75,North,354,1.0,1.0,51,0.00,,,0.00,Wunderground v.1.15,2013-02-08 18:00:00,
2013-02-08 14:10:00,13.4,-1.0,30.75,NW,316,0.0,22.0,52,0.00,,,0.00,Wunderground v.1.15,2013-02-08 18:10:00,
2013-02-08 14:20:00,13.2,-0.8,30.74,ENE,65,1.0,1.0,53,0.00,,,0.00,Wunderground v.1.15,2013-02-08 18:20:00,
2013-02-08 14:30:00,12.7,-0.1,30.75,ENE,71,0.0,22.0,56,0.00,,,0.00,Wunderground v.1.15,2013-02-08 18:30:00,
2013-02-08 14:40:00,11.9,-1.2,30.75,WNW,286,1.0,1.0,55,0.00,,,0.00,Wunderground v.1.15,2013-02-08 18:40:00,
2013-02-08 14:50:00,12.0,0.0,30.74,NW,309,0.0,22.0,58,0.00,,,0.00,Wunderground v.1.15,2013-02-08 18:50:00,
2013-02-08 15:00:00,11.5,0.6,30.75,NW,316,1.0,1.0,61,0.00,,,0.00,Wunderground v.1.15,2013-02-08 19:00:00,
2013-02-08 15:10:00,11.3,0.8,30.75,North,357,1.0,22.0,62,0.00,,,0.00,Wunderground v.1.15,2013-02-08 19:10:00,
2013-02-08 15:20:00,10.7,1.2,30.75,NW,315,1.0,22.0,65,0.00,,,0.00,Wunderground v.1.15,2013-02-08 19:20:00,
2013-02-08 15:30:00,10.4,1.3,30.75,WNW,291,1.0,22.0,66,0.00,,,0.00,Wunderground v.1.15,2013-02-08 19:30:00,
2013-02-08 15:40:00,10.5,1.7,30.75,NNE,21,0.0,22.0,67,0.00,,,0.00,Wunderground v.1.15,2013-02-08 19:40:00,
2013-02-08 15:50:00,10.3,1.8,30.75,NW,311,0.0,22.0,68,0.00,,,0.00,Wunderground v.1.15,2013-02-08 19:50:00,
2013-02-08 16:00:00,10.3,2.4,30.75,NW,311,0.0,22.0,70,0.00,,,0.00,Wunderground v.1.15,2013-02-08 20:00:00,
2013-02-08 16:10:00,10.3,2.1,30.74,North,1,0.0,22.0,69,0.00,,,0.00,Wunderground v.1.15,2013-02-08 20:10:00,
2013-02-08 16:20:00,10.2,2.4,30.74,North,358,0.0,22.0,70,0.00,,,0.00,Wunderground v.1.15,2013-02-08 20:20:00,
2013-02-08 16:30:00,10.2,2.0,30.74,North,1,0.0,22.0,69,0.00,,,0.00,Wunderground v.1.15,2013-02-08 20:30:00,
2013-02-08 16:40:00,9.8,2.0,30.74,North,1,0.0,22.0,70,0.00,,,0.00,Wunderground v.1.15,2013-02-08 20:40:00,
2013-02-08 16:50:00,9.4,1.9,30.74,North,1,0.0,22.0,71,0.00,,,0.00,Wunderground v.1.15,2013-02-08 20:50:00,
2013-02-08 17:00:00,8.5,1.3,30.73,North,1,0.0,22.0,72,0.00,,,0.00,Wunderground v.1.15,2013-02-08 21:00:00,
2013-02-08 17:10:00,7.8,1.2,30.73,North,1,0.0,22.0,74,0.00,,,0.00,Wunderground v.1.15,2013-02-08 21:10:00,
2013-02-08 17:20:00,7.3,1.0,30.73,North,1,0.0,22.0,75,0.00,,,0.00,Wunderground v.1.15,2013-02-08 21:20:00,
2013-02-08 17:30:00,6.9,0.9,30.72,North,1,0.0,22.0,76,0.00,,,0.00,Wunderground v.1.15,2013-02-08 21:30:00,
2013-02-08 17:40:00,6.7,1.0,30.72,North,1,0.0,22.0,77,0.00,,,0.00,Wunderground v.1.15,2013-02-08 21:40:00,
2013-02-08 17:50:00,6.4,0.7,30.72,North,1,0.0,22.0,77,0.00,,,0.00,Wunderground v.1.15,2013-02-08 21:50:00,
2013-02-08 18:00:00,5.9,0.5,30.72,North,1,0.0,22.0,78,0.00,,,0.00,Wunderground v.1.15,2013-02-08 22:00:00,
2013-02-08 18:10:00,5.6,0.5,30.71,North,1,0.0,22.0,79,0.00,,,0.00,Wunderground v.1.15,2013-02-08 22:10:00,
2013-02-08 18:20:00,5.1,0.3,30.71,North,1,0.0,22.0,80,0.00,,,0.00,Wunderground v.1.15,2013-02-08 22:20:00,
2013-02-08 18:30:00,4.6,-0.2,30.71,North,1,0.0,22.0,80,0.00,,,0.00,Wunderground v.1.15,2013-02-08 22:30:00,
2013-02-08 18:40:00,4.2,-0.3,30.71,North,1,0.0,22.0,81,0.00,,,0.00,Wunderground v.1.15,2013-02-08 22:40:00,
2013-02-08 18:50:00,3.9,-0.6,30.70,North,1,0.0,22.0,81,0.00,,,0.00,Wunderground v.1.15,2013-02-08 22:50:00,
2013-02-08 19:00:00,3.7,-0.6,30.70,North,1,0.0,22.0,82,0.00,,,0.00,Wunderground v.1.15,2013-02-08 23:00:00,
2013-02-08 19:10:00,3.6,-0.4,30.69,North,1,0.0,22.0,83,0.00,,,0.00,Wunderground v.1.15,2013-02-08 23:10:00,
2013-02-08 19:20:00,3.7,-0.1,30.69,North,1,0.0,22.0,84,0.00,,,0.00,Wunderground v.1.15,2013-02-08 23:20:00,
2013-02-08 19:30:00,3.5,-0.5,30.69,North,1,0.0,22.0,83,0.00,,,0.00,Wunderground v.1.15,2013-02-08 23:30:00,
2013-02-08 19:40:00,3.1,-0.6,30.69,North,1,0.0,22.0,84,0.00,,,0.00,Wunderground v.1.15,2013-02-08 23:40:00,
2013-02-08 19:50:00,3.0,-0.5,30.69,North,1,0.0,22.0,85,0.00,,,0.00,Wunderground v.1.15,2013-02-08 23:50:00,
2013-02-08 20:00:00,3.5,0.0,30.68,North,1,0.0,22.0,85,0.00,,,0.00,Wunderground v.1.15,2013-02-09 00:00:00,
2013-02-08 20:10:00,3.7,0.2,30.68,North,1,0.0,22.0,85,0.00,,,0.00,Wunderground v.1.15,2013-02-09 00:10:00,
2013-02-08 20:20:00,3.7,0.2,30.68,North,1,0.0,22.0,85,0.00,,,0.00,Wunderground v.1.15,2013-02-09 00:20:00,
2013-02-08 20:30:00,4.1,0.8,30.68,North,1,0.0,22.0,86,0.00,,,0.00,Wunderground v.1.15,2013-02-09 00:30:00,
2013-02-08 20:40:00,4.0,0.5,30.68,North,1,0.0,22.0,85,0.00,,,0.00,Wunderground v.1.15,2013-02-09 00:40:00,
2013-02-08 20:50:00,4.1,0.8,30.67,ESE,112,0.0,22.0,86,0.00,,,0.00,Wunderground v.1.15,2013-02-09 00:50:00,
2013-02-08 21:00:00,5.2,1.9,30.67,ENE,64,0.0,22.0,86,0.00,,,0.00,Wunderground v.1.15,2013-02-09 01:00:00,
2013-02-08 21:10:00,5.5,2.2,30.66,East,94,0.0,22.0,86,0.00,,,0.00,Wunderground v.1.15,2013-02-09 01:10:00,
2013-02-08 21:20:00,5.8,2.5,30.65,East,101,0.0,22.0,86,0.00,,,0.00,Wunderground v.1.15,2013-02-09 01:20:00,
2013-02-08 21:30:00,6.0,2.7,30.65,West,278,0.0,22.0,86,0.00,,,0.00,Wunderground v.1.15,2013-02-09 01:30:00,
2013-02-08 21:40:00,6.4,3.1,30.65,SSW,210,0.0,22.0,86,0.00,,,0.00,Wunderground v.1.15,2013-02-09 01:40:00,
2013-02-08 21:50:00,6.6,3.3,30.65,East,82,0.0,22.0,86,0.00,,,0.00,Wunderground v.1.15,2013-02-09 01:50:00,
2013-02-08 22:00:00,6.9,3.6,30.65,ENE,63,0.0,22.0,86,0.00,,,0.00,Wunderground v.1.15,2013-02-09 02:00:00,
2013-02-08 22:10:00,7.3,3.7,30.66,East,92,2.0,22.0,85,0.00,,,0.00,Wunderground v.1.15,2013-02-09 02:10:00,
2013-02-08 22:20:00,7.4,3.6,30.66,East,86,3.0,22.0,84,0.00,,,0.00,Wunderground v.1.15,2013-02-09 02:20:00,
2013-02-08 22:30:00,7.5,3.7,30.66,ENE,65,3.0,22.0,84,0.00,,,0.00,Wunderground v.1.15,2013-02-09 02:30:00,
2013-02-08 22:40:00,7.6,3.8,30.66,ENE,63,2.0,22.0,84,0.00,,,0.00,Wunderground v.1.15,2013-02-09 02:40:00,
2013-02-08 22:50:00,7.4,3.6,30.64,ENE,72,0.0,22.0,84,0.00,,,0.00,Wunderground v.1.15,2013-02-09 02:50:00,
2013-02-08 23:00:00,7.5,3.9,30.63,NNW,336,0.0,22.0,85,0.00,,,0.00,Wunderground v.1.15,2013-02-09 03:00:00,
2013-02-08 23:10:00,7.7,4.1,30.62,SE,127,0.0,22.0,85,0.00,,,0.00,Wunderground v.1.15,2013-02-09 03:10:00,
2013-02-08 23:20:00,7.9,4.3,30.61,West,273,0.0,22.0,85,0.00,,,0.00,Wunderground v.1.15,2013-02-09 03:20:00,
2013-02-08 23:30:00,8.1,4.5,30.59,NW,321,0.0,22.0,85,0.00,,,0.00,Wunderground v.1.15,2013-02-09 03:30:00,
2013-02-08 23:40:00,8.5,4.7,30.58,West,274,1.0,22.0,84,0.00,,,0.00,Wunderground v.1.15,2013-02-09 03:40:00,
2013-02-08 23:50:00,8.9,5.1,30.58,NNW,345,1.0,22.0,84,0.00,,,0.00,Wunderground v.1.15,2013-02-09 03:50:00,